Location: Fluertsh�userhof
(48.7537°N, 10.3850°E)
Time: 05:53:58
(UTC+00:00)

Cosmos 2082 Rocket - Pass Details

Date: 18 September 2020
Orbit: 834 x 853 km, 71.0° (Epoch: 27 October)

Event Time Altitude Azimuth Distance (km) Brightness Sun altitude
Rises 20:39:27 0° 333° (NNW) 3,393 6.4 -29.9°
Reaches altitude 10° 20:41:58 10° 339° (NNW) 2,456 5.4 -30.2°
Enters shadow 20:46:23 46° 17° (NNE) 1,112 2.9 -30.7°
